Temperature
17 17 17 17 17 17 17 17 17 17 17 17 17 16 16 16 16 16 16 16 16 16 16 16 16 16 16 16 16 16 16 16 16 16 16 16 16 16 16 16 16 16 15
17 17 17 17 17 17 17 17 17 17 16 16 16 16 16 16 16 16 16 16 16 16 16 16 16 15 15 15 15 15 15 15 15 15 15 15 15 15 15 15 15 15 15
17 17 17 17 17 17 17 17 17 16 16 16 16 16 16 16 16 16 16 16 15 15 15 15 15 15 15 15 15 15 15 15 15 15 15 15 15 15 15 15 14 14 14
17 17 17 17 17 17 17 16 16 16 16 16 16 16 16 16 16 15 15 15 15 15 15 15 15 15 15 15 15 15 15 14 14 14 14 14 14 14 14 14 14 14 14
17 17 17 17 17 16 16 16 16 16 16 16 16 16 16 15 15 15 15 15 15 15 14 14 14 14 14 14 14 14 14 14 14 14 13 13 13 13 13 13 13 13 13
17 17 17 17 16 16 16 16 16 16 16 16 16 15 15 15 15 15 15 15 15 14 14 14 14 14 13 13 13 13 13 13 13 13 12 12 12 12 12 12 11 12 12
17 17 16 16 16 16 16 16 16 15 15 15 15 15 15 15 15 15 14 14 14 14 14 13 13 13 13 13 12 12 12 12 12 11 11 11 11 10 10 10 10 10 10
17 17 16 16 16 16 16 16 15 15 15 15 14 14 14 14 14 14 14 14 13 13 13 12 12 12 12 12 12 11 11 11 11 10 10 10 9 9 9 9 9 9 9
17 16 16 16 16 16 15 15 15 15 14 14 14 13 13 13 13 13 13 13 13 12 12 12 11 11 11 11 11 10 10 10 9 9 9 8 8 8 8 8 8 8 8
17 16 16 16 16 15 15 15 14 14 13 13 13 12 12 12 12 12 12 12 12 11 11 11 10 10 10 9 9 9 9 8 8 8 8 7 7 7 7 7 7 6 6
16 16 15 15 15 15 14 14 13 13 13 12 12 12 12 12 12 11 11 11 11 10 10 10 9 9 8 8 8 8 7 7 7 7 7 7 6 6 6 6 6 6 5
15 15 15 14 14 14 13 13 12 12 12 12 11 11 11 11 10 10 10 10 9 9 9 8 8 7 7 7 7 6 6 6 6 6 6 6 5 5 5 5 5 5 4
14 14 14 13 13 12 12 12 12 12 11 11 11 10 10 10 9 9 9 9 8 8 8 7 7 7 6 6 6 5 5 5 5 5 5 4 4 4 4 4 4 4 4
13 13 12 12 12 12 11 11 11 11 10 10 10 9 9 8 8 8 8 7 7 7 7 6 6 6 6 5 5 5 5 4 4 4 4 3 3 3 3 3 3 3 3
12 12 11 11 11 11 10 10 10 10 10 9 9 8 8 8 7 7 7 7 6 6 6 6 6 5 5 5 4 4 4 4 3 3 3 3 2 2 2 2 2 2 2
11 11 11 10 10 10 10 9 9 8 8 8 8 7 7 7 6 6 6 6 6 6 5 5 5 4 4 4 4 3 3 3 2 2 2 2 1 1 1 1 1 1 1
11 10 10 10 10 9 9 9 8 7 7 7 7 7 6 6 6 6 5 5 5 5 5 4 4 4 3 3 3 2 2 2 1 1 1 1 1 1 1 1 1 0 0
10 10 10 9 9 9 8 8 8 8 7 6 6 6 6 5 5 5 5 5 4 4 4 4 3 3 3 2 2 2 1 1 1 1 1 1 0 0 0 0 0 -0 -0
9 9 9 9 8 8 8 7 7 7 7 6 6 5 5 5 5 4 4 4 4 4 3 3 3 2 2 2 1 1 1 1 1 0 0 0 0 0 0 -0 -0 -0 -0
9 8 8 8 8 8 7 7 7 6 6 6 5 5 5 5 4 4 4 4 3 3 3 2 2 2 1 1 1 1 0 0 0 0 0 0 0 0 -0 -0 -0 -0 -0
8 8 8 8 8 7 7 7 7 6 6 5 5 5 4 4 4 3 3 3 3 2 2 2 1 1 1 1 0 0 0 -0 -0 -0 -0 0 -0 -0 -0 -0 -0 -0 -1
8 8 8 8 7 7 7 6 6 6 5 5 4 4 4 4 3 3 3 2 2 2 2 1 1 1 1 0 0 -0 -0 -0 -0 -0 -0 -0 -0 -0 -0 -0 -1 -1 -1
8 8 7 7 7 6 6 6 5 5 5 4 4 4 4 3 3 3 2 2 2 1 1 1 1 0 0 0 -0 -0 -0 -1 -1 -1 -0 -0 -0 -1 -1 -1 -1 -1 -1
7 7 7 7 6 6 6 5 5 5 4 4 4 3 3 3 3 2 2 2 1 1 1 1 1 0 0 -0 -0 -1 -1 -1 -1 -1 -1 -1 -1 -1 -1 -1 -1 -1 -1
7 7 6 6 6 6 5 5 5 4 4 4 3 3 3 3 2 2 2 1 1 1 1 0 0 0 -0 -0 -1 -1 -1 -1 -1 -1 -1 -1 -1 -1 -1 -1 -1 -1 -1
6 6 6 6 6 5 5 5 4 4 4 3 3 3 3 2 2 2 2 1 1 1 0 0 -0 -0 -0 -1 -1 -1 -1 -1 -1 -1 -1 -1 -2 -2 -2 -2 -2 -2 -1
Wind_Speed
9 8 8 8 8 8 8 9 9 8 8 9 8 8 7 6 6 5 4 4 4 2 2 2 1 1 0 1 1 1 1 3 3 4 3 3 3 3 3 6 9 10 12
9 9 8 8 8 8 8 8 9 9 8 8 8 7 7 6 6 6 5 4 4 3 2 2 1 1 1 0 1 1 0 1 2 3 3 3 3 3 3 3 5 6 8
9 9 9 8 8 8 8 7 8 8 7 7 7 7 6 5 5 5 5 4 4 4 3 3 1 2 1 0 1 1 1 1 1 1 2 2 2 3 3 3 3 4 7
9 9 9 9 9 8 8 7 7 8 7 7 6 6 5 5 5 4 5 4 4 3 3 3 3 3 2 1 1 1 1 1 1 1 1 2 2 3 3 3 4 4 5
10 9 9 8 8 8 8 8 7 7 7 6 6 6 5 4 3 4 4 5 5 4 4 4 4 5 5 3 2 2 2 2 2 1 1 2 3 3 3 3 3 4 4
10 9 8 8 8 8 8 8 8 7 6 6 6 6 5 3 4 5 5 5 5 6 6 6 6 8 8 8 9 8 5 3 1 1 1 1 3 2 2 3 3 3 4
10 9 8 8 8 8 9 9 8 8 8 8 7 8 7 5 7 8 9 8 8 7 6 6 6 7 7 6 8 10 10 10 6 2 1 2 2 3 3 3 3 3 4
10 10 10 10 10 9 10 10 9 9 9 8 9 9 9 9 11 13 14 11 10 9 8 7 7 7 7 6 6 7 6 6 6 4 1 2 3 3 3 3 3 4 5
10 10 10 11 11 11 11 10 10 11 11 9 9 10 11 10 13 14 14 10 10 10 8 8 8 7 9 9 7 6 6 6 8 10 9 8 9 9 5 2 3 3 4
10 10 10 11 12 12 12 12 11 12 12 12 12 10 11 10 12 14 12 9 9 7 7 7 9 8 9 9 6 5 6 5 6 8 9 11 10 11 11 4 2 3 3
10 11 11 11 12 13 12 12 13 14 14 13 13 10 10 11 12 14 12 7 7 6 5 4 4 7 8 8 6 4 3 3 4 5 6 6 6 7 7 8 5 2 3
12 13 12 11 11 12 13 13 13 14 14 12 12 11 8 9 11 12 14 12 8 6 4 2 3 6 8 8 6 6 8 7 5 5 5 5 5 5 6 7 9 8 5
14 14 13 14 12 12 13 13 12 11 11 10 9 9 7 6 8 12 13 12 10 6 3 5 6 8 8 7 9 10 8 6 5 5 4 4 4 4 4 5 7 9 9
16 14 13 14 13 12 10 9 10 9 10 10 9 8 6 5 5 5 5 6 7 6 5 6 8 10 8 8 8 7 6 5 4 3 3 3 4 5 5 4 5 5 5
16 14 14 13 13 13 11 9 9 7 8 10 7 7 7 5 3 4 4 4 3 4 4 5 6 6 6 6 5 5 5 5 5 4 4 4 4 5 5 5 4 5 5
15 13 12 11 11 12 13 12 15 12 14 13 10 8 6 6 6 8 9 9 9 8 7 6 5 5 4 4 4 4 4 4 4 3 4 4 4 5 5 6 5 5 6
14 12 11 11 11 10 10 12 10 9 12 12 10 10 8 8 9 10 10 11 11 10 7 5 4 3 3 3 3 3 3 3 3 3 4 4 5 5 5 6 7 7 7
13 13 11 9 9 9 8 8 9 9 7 4 5 7 8 9 10 11 11 10 8 7 5 4 3 3 2 2 3 3 3 4 4 4 4 4 5 5 6 7 7 8 8
10 9 8 8 8 8 8 8 7 7 6 4 3 4 6 8 10 10 9 6 5 4 3 3 3 2 2 2 3 3 3 3 3 4 4 5 5 5 6 7 8 10 9
9 12 10 8 8 8 7 7 6 6 5 4 3 2 3 5 5 5 5 4 4 3 3 3 2 2 2 2 2 3 2 3 4 4 5 6 6 6 7 8 8 9 9
8 9 12 9 8 7 7 7 6 6 5 4 3 3 6 5 5 4 4 3 3 3 2 2 1 1 1 1 2 2 2 3 4 5 5 6 6 7 7 7 8 9 9
8 7 7 7 7 7 7 6 6 6 6 6 4 5 8 6 4 4 3 2 1 1 1 2 1 0 1 1 1 1 2 4 5 6 6 7 7 7 7 7 8 9 9
7 8 7 7 7 9 8 6 6 6 5 5 5 5 5 4 4 3 2 1 1 1 2 3 2 2 3 3 2 1 2 4 5 6 6 7 7 7 7 8 10 10 10
7 8 8 7 7 7 7 6 6 6 6 6 5 4 4 4 3 2 1 1 1 2 3 4 4 4 3 3 3 4 6 8 9 9 9 7 8 8 8 8 9 10 10
7 8 7 7 7 7 7 6 6 6 6 5 5 4 3 3 3 2 1 2 3 3 4 5 5 4 3 3 5 7 9 11 12 12 11 8 7 8 8 9 9 10 10
7 8 7 6 6 6 6 6 6 6 5 5 4 4 4 3 3 2 1 2 2 3 4 4 3 3 3 4 6 9 11 13 15 15 12 9 7 7 8 8 10 9 10
Wind_Direction
175 172 169 169 167 163 166 170 170 169 169 171 174 170 168 165 163 160 170 166 168 180 170 158 198 185 76 26 67 93 126 153 214 279 279 306 331 319 303 259 254 256 257
170 165 166 165 163 162 167 168 166 165 170 168 163 162 168 168 166 164 171 162 163 171 174 153 205 153 121 32 68 53 56 168 187 270 301 318 320 315 306 295 286 280 273
164 162 162 163 163 165 164 162 157 154 156 154 153 158 162 162 161 163 161 162 163 168 166 161 179 135 127 39 68 42 342 42 138 211 291 308 316 341 340 331 328 325 312
162 162 164 167 169 165 155 151 150 149 149 147 147 148 145 144 149 158 158 156 149 139 131 127 115 114 118 98 70 26 39 40 38 39 332 332 330 334 5 342 331 329 317
160 162 166 163 158 153 151 147 143 140 145 143 135 128 127 127 137 142 148 147 138 121 103 92 83 80 75 70 71 55 55 51 35 29 355 347 335 347 344 330 321 316 310
164 164 159 153 149 148 149 143 138 138 133 125 123 120 109 107 113 128 134 125 120 114 104 87 73 59 58 60 63 61 61 66 62 43 343 318 304 309 314 322 322 337 314
159 158 156 152 150 149 146 134 134 132 120 112 110 104 93 79 87 95 105 104 101 99 98 91 76 57 52 58 59 55 48 45 48 75 11 321 310 306 312 316 313 294 277
161 162 159 151 146 142 137 134 130 120 111 106 99 97 88 72 83 90 91 88 86 83 85 87 84 61 51 63 67 56 43 29 26 35 31 314 316 304 289 287 286 297 288
159 158 155 149 143 135 130 126 120 111 104 97 93 91 88 76 82 90 93 91 88 80 77 75 77 67 54 63 66 56 37 15 17 19 18 10 4 0 354 3 348 346 319
155 148 143 139 136 131 129 122 115 111 107 101 91 83 84 80 78 85 92 98 95 88 75 64 62 62 55 59 66 60 38 1 1 7 12 14 15 14 17 24 354 336 316
134 130 127 125 126 125 120 116 116 113 108 102 93 79 71 71 70 75 80 90 100 95 80 60 41 46 52 54 62 66 44 18 13 17 15 13 11 12 11 11 5 336 315
115 115 115 116 118 117 115 113 114 114 109 104 96 83 67 61 66 71 72 78 90 92 83 56 38 47 48 45 48 41 38 41 37 32 27 13 6 358 349 350 353 346 325
107 105 103 99 100 106 111 114 113 113 113 110 104 97 81 61 57 61 65 67 69 74 65 61 60 58 52 44 41 44 44 45 44 36 17 352 336 329 333 337 340 344 336
106 102 99 99 95 92 94 103 112 115 118 116 112 108 96 73 55 49 51 55 50 50 49 52 59 60 56 46 42 42 41 42 45 31 355 337 336 344 345 341 335 336 333
102 102 99 97 97 90 82 77 91 91 117 123 122 123 117 101 79 85 78 59 50 52 64 59 54 52 48 42 36 32 30 29 29 14 8 358 351 348 337 335 333 332 325
108 106 105 105 103 102 99 84 61 79 90 98 110 115 100 108 99 76 68 69 74 82 80 69 63 60 58 49 39 22 16 13 6 6 5 357 348 341 336 334 334 330 320
113 113 112 111 112 112 112 112 103 72 66 78 92 97 99 93 76 67 68 72 73 78 80 76 69 61 55 46 35 22 3 349 354 5 2 351 341 336 333 330 328 325 319
109 113 117 119 120 121 121 121 123 121 109 72 53 70 76 73 67 63 68 74 61 58 74 77 68 59 52 37 18 6 360 358 1 357 350 341 336 331 327 323 321 317 316
109 115 116 118 119 119 119 116 114 113 112 104 76 49 57 68 61 60 68 78 82 72 66 64 62 60 47 29 14 12 15 8 356 345 336 328 324 323 318 315 314 313 314
107 116 118 118 117 116 119 119 118 117 113 107 101 89 67 72 70 58 61 77 83 80 73 66 55 55 46 28 20 21 20 1 346 335 324 319 316 313 311 312 312 312 310
99 107 110 110 116 119 121 122 122 121 119 113 107 105 114 101 100 96 90 87 94 96 87 77 70 48 39 37 37 27 11 339 326 320 317 314 314 312 308 305 305 305 306
100 99 103 107 109 112 114 115 117 117 120 115 100 95 102 101 106 103 96 93 95 116 130 118 92 77 55 59 72 33 344 326 320 319 314 310 309 308 307 307 308 308 308
104 104 101 102 108 114 112 114 115 114 114 115 115 109 103 106 109 108 105 96 82 87 85 88 93 81 64 64 68 41 315 307 301 302 306 308 308 307 306 304 304 307 309
109 109 108 106 105 107 109 109 109 111 114 115 114 115 118 119 117 114 112 81 57 60 74 84 96 98 77 55 24 355 337 326 320 309 301 295 299 301 304 304 305 306 308
104 105 107 109 109 109 109 107 109 112 114 118 122 124 124 122 118 108 88 66 65 72 83 96 99 87 67 27 352 341 339 337 334 329 318 302 296 299 302 305 308 310 311
109 110 110 110 111 113 115 116 117 119 120 125 127 131 132 132 133 124 104 90 86 85 89 99 101 65 25 356 342 342 343 342 341 338 330 313 304 309 316 315 315 317 316
Height
1496 1499 1503 1506 1510 1514 1518 1521 1524 1527 1530 1533 1536 1539 1541 1543 1545 1547 1549 1550 1552 1553 1554 1556 1557 1557 1558 1558 1558 1559 1559 1558 1558 1557 1557 1557 1556 1556 1555 1555 1555 1554 1554
1495 1499 1502 1506 1509 1513 1516 1520 1523 1526 1529 1532 1535 1538 1540 1542 1544 1546 1547 1549 1550 1551 1553 1554 1555 1555 1556 1556 1556 1556 1556 1556 1555 1554 1554 1553 1553 1552 1552 1551 1551 1550 1549
1495 1499 1502 1505 1509 1512 1515 1518 1522 1525 1528 1531 1534 1536 1538 1540 1542 1544 1546 1547 1549 1550 1551 1552 1552 1553 1553 1553 1553 1553 1553 1552 1552 1551 1550 1550 1549 1548 1547 1547 1546 1545 1545
1495 1498 1501 1505 1508 1511 1514 1517 1520 1523 1526 1529 1532 1534 1536 1538 1541 1543 1544 1546 1547 1548 1549 1549 1550 1550 1550 1550 1550 1550 1549 1549 1548 1548 1547 1546 1545 1544 1543 1541 1540 1540 1539
1495 1498 1501 1504 1507 1510 1513 1516 1519 1522 1525 1528 1530 1533 1535 1537 1539 1540 1542 1543 1545 1545 1546 1547 1547 1547 1547 1547 1547 1546 1546 1545 1544 1544 1543 1541 1541 1539 1538 1536 1535 1533 1533
1494 1497 1500 1503 1506 1509 1512 1515 1518 1521 1524 1526 1529 1531 1533 1535 1537 1538 1540 1541 1542 1543 1544 1544 1544 1544 1544 1544 1543 1543 1542 1542 1540 1540 1539 1537 1536 1535 1533 1532 1530 1528 1527
1493 1496 1499 1502 1505 1508 1511 1513 1516 1519 1522 1525 1526 1529 1531 1533 1535 1536 1537 1538 1539 1540 1541 1541 1541 1542 1541 1541 1540 1540 1539 1538 1538 1537 1535 1534 1532 1531 1529 1528 1526 1524 1522
1491 1494 1497 1500 1503 1506 1509 1512 1514 1517 1520 1523 1525 1527 1529 1531 1533 1534 1535 1536 1537 1538 1539 1539 1539 1539 1539 1538 1538 1537 1536 1535 1534 1533 1532 1530 1529 1527 1525 1524 1522 1519 1518
1490 1492 1496 1499 1502 1505 1508 1510 1513 1515 1518 1521 1524 1526 1527 1529 1531 1533 1534 1534 1535 1536 1537 1537 1537 1537 1536 1536 1535 1534 1534 1533 1532 1531 1529 1528 1526 1524 1522 1520 1518 1515 1513
1488 1490 1494 1497 1500 1504 1506 1509 1512 1515 1517 1520 1523 1525 1527 1528 1530 1532 1533 1533 1534 1534 1535 1535 1535 1534 1534 1533 1533 1532 1531 1531 1530 1528 1527 1525 1524 1522 1520 1517 1515 1513 1510
1487 1490 1492 1496 1500 1503 1506 1508 1511 1514 1517 1520 1522 1525 1527 1528 1530 1531 1532 1532 1532 1533 1533 1533 1533 1533 1533 1532 1532 1531 1530 1529 1527 1526 1525 1523 1521 1519 1517 1515 1513 1511 1508
1486 1489 1492 1496 1499 1503 1506 1508 1512 1514 1517 1519 1522 1524 1527 1528 1529 1530 1531 1531 1532 1532 1532 1532 1532 1532 1532 1532 1531 1530 1529 1528 1526 1524 1523 1521 1518 1516 1514 1512 1510 1508 1505
1486 1489 1492 1496 1499 1503 1506 1509 1512 1515 1517 1520 1522 1524 1526 1528 1529 1530 1531 1531 1531 1532 1532 1532 1532 1532 1532 1531 1530 1529 1528 1526 1524 1523 1521 1519 1517 1514 1512 1509 1506 1504 1501
1486 1489 1493 1497 1501 1504 1507 1511 1513 1516 1518 1520 1523 1525 1527 1528 1530 1530 1531 1531 1532 1532 1532 1532 1532 1532 1531 1530 1529 1528 1526 1525 1523 1521 1519 1517 1514 1511 1508 1505 1502 1498 1495
1488 1492 1496 1499 1502 1506 1509 1513 1516 1518 1521 1522 1524 1526 1528 1529 1530 1531 1531 1532 1532 1533 1532 1532 1532 1531 1530 1529 1528 1527 1525 1523 1522 1520 1517 1514 1511 1508 1505 1502 1498 1495 1491
1491 1495 1498 1502 1505 1509 1511 1514 1518 1521 1523 1525 1527 1528 1529 1531 1531 1532 1532 1533 1533 1533 1533 1532 1531 1531 1530 1529 1528 1526 1524 1522 1520 1518 1515 1512 1509 1505 1502 1499 1496 1492 1488
1495 1499 1502 1506 1509 1512 1514 1516 1519 1523 1526 1528 1529 1530 1531 1532 1533 1533 1533 1533 1533 1533 1533 1532 1531 1531 1530 1528 1527 1525 1523 1521 1519 1516 1513 1510 1506 1503 1499 1495 1492 1489 1485
1501 1504 1506 1509 1512 1515 1518 1520 1522 1524 1527 1529 1531 1532 1533 1534 1534 1534 1535 1534 1534 1534 1533 1532 1531 1530 1529 1528 1526 1524 1522 1519 1517 1514 1511 1507 1504 1500 1496 1493 1489 1485 1482
1505 1508 1511 1513 1516 1518 1520 1523 1525 1527 1529 1530 1532 1534 1535 1535 1535 1535 1535 1535 1534 1534 1533 1532 1531 1530 1529 1527 1525 1523 1520 1518 1515 1512 1508 1505 1501 1497 1493 1490 1486 1482 1479
1509 1512 1514 1516 1518 1521 1523 1525 1527 1529 1530 1532 1533 1534 1535 1536 1536 1536 1536 1535 1535 1534 1533 1532 1531 1529 1528 1526 1524 1521 1519 1516 1513 1509 1506 1502 1498 1494 1490 1486 1483 1479 1476
1513 1516 1518 1519 1521 1524 1526 1528 1529 1531 1532 1533 1535 1535 1536 1536 1536 1536 1536 1535 1535 1534 1533 1532 1530 1529 1527 1525 1522 1520 1517 1513 1510 1506 1502 1498 1495 1491 1487 1483 1480 1476 1473
1517 1519 1521 1522 1524 1526 1528 1530 1531 1532 1534 1535 1536 1536 1537 1537 1537 1537 1536 1535 1535 1533 1532 1531 1529 1528 1526 1523 1521 1518 1514 1511 1507 1503 1499 1495 1491 1487 1484 1480 1477 1473 1469
1520 1522 1523 1525 1527 1528 1530 1531 1533 1534 1535 1536 1537 1537 1538 1538 1537 1537 1536 1535 1534 1533 1532 1530 1528 1526 1524 1521 1519 1515 1512 1508 1504 1500 1495 1491 1488 1484 1480 1477 1473 1470 1466
1523 1524 1525 1527 1529 1530 1531 1532 1534 1535 1536 1537 1537 1538 1538 1538 1537 1537 1536 1535 1534 1532 1531 1529 1527 1525 1522 1520 1517 1513 1509 1505 1501 1497 1492 1488 1485 1481 1477 1474 1470 1467 1463
1525 1526 1528 1529 1531 1532 1533 1534 1535 1536 1537 1537 1538 1538 1538 1538 1537 1536 1535 1534 1533 1531 1529 1527 1525 1523 1520 1517 1514 1510 1506 1502 1498 1493 1489 1485 1482 1478 1474 1471 1467 1464 1460
1527 1529 1530 1531 1532 1533 1534 1535 1536 1537 1538 1538 1538 1538 1538 1537 1537 1536 1534 1533 1531 1530 1528 1526 1524 1521 1518 1515 1511 1507 1503 1499 1495 1491 1487 1483 1479 1475 1471 1467 1464 1461 1457